DMSP 5D-2 F13 DEB, 42271

Orbit data source: Space-Track

DMSP 5D-2 F13 DEB, 42271 is space debris in SSO originally from a launch on Fri, 24 Mar 1995 UTC launched from the Air Force Western Test Range (AFWTR). Debris objects in space refer to the collection of defunct objects orbiting the Earth. Examples of debris include non-operational satellites, rocket bodies, and fragments generated from explosions, collisions, or faulty payload assembly.

Loading next visibility...
Identifier
42271, 1995-015GM
Orbit
SSO
Country
Flag of USUS
Related business
Manufacturer
Unknown
Mission
Spacecraft
Bus & Motor
Unknown
Mass
Unknown
Launch date (UTC)
1995-03-24 (31 years ago)
Launch vehicle
Unknown
Launch site
Air Force Western Test Range (AFWTR)
Object type
Payload
Rocket body
Debris
Shape & HBR
Unknown shape, 0.1 m
Radar Cross Section
Small (<0.1 m²)

Expand to show TLE details & history
Last TLE update: 6 hours ago

TLE from 6 hours ago
0 DMSP 5D-2 F13 DEB
1 42271U 95015GM  26151.16917205  .00085436  00000-0  87840-2 0  9997
2 42271  98.6801 233.7227 0002321 169.2970 190.8295 14.89888493569745
Epoch: 2026-05-31T04:03Z
TLE epoch observation values (Epoch: 2026-05-31T04:03:36.465Z)
Latitude
0.00003°
Longitude
-75.85395°
Altitude
602.885 km
Speed
7.557 km/s
True Right ascension
15h 34m 53s
True Declination
0° 00' 00"
Sunlit
Object was in full shadow at epoch
Visualization orbit readout
Latitude
Unknown
Longitude
Unknown
Altitude
Unknown
Speed
Unknown
Apparent Right ascension
Unknown
Apparent Declination
Unknown
Sunlit
N/A
Visualization observer readout
Local Sidereal Time
19:36:20
Azimuth
Unknown
Elevation
Unknown
Doppler factor
Unknown
Orbital elements
Apogee altitude
596.967 km
Perigee altitude
593.73 km
Semi-major axis
6,973.485 km
Eccentricity
0.00023
Inclination
98.6801°
RAAN
233.7227°
Arg. of periapsis
169.297°
True anomaly
190.8245°
Mean anomaly
190.8295°
Eccentric anomaly
190.827°
Mean motion
3.72708 °/min
Orbital period
96.59 mins
BSTAR
0.008784
Loading maneuver chart data...
Computing Atmospheric mass density...

Documentation

Showing up to 5 results
|